FW2982 Weather Reports


time (UTC)temp
C
wind
direction
speed
KPH
gust
KPH
rain 1hr
cm
rain 24hr
cm
rain mn
cm
humidity
%
barometer
mb
20260505192604 29 134 9.7 20.9 0.00 0.00 0.00 28 1007.0
20260505192102 29 235 8.0 20.9 0.00 0.00 0.00 29 1007.4
20260505191841 29 213 6.4 20.9 0.00 0.00 0.00 30 1007.4
20260505191102 30 196 6.4 17.7 0.00 0.00 0.00 29 1007.4
20260505190601 29 193 4.8 16.1 0.00 0.00 0.00 31 1007.4
20260505190343 30 111 4.8 11.3 0.00 0.00 0.00 32 1007.6
20260505185600 30 223 4.8 14.5 0.00 0.00 0.00 32 1007.8
20260505185100 30 261 4.8 16.1 0.00 0.00 0.00 30 1007.7
20260505184603 30 248 6.4 16.1 0.00 0.00 0.00 31 1007.9
20260505184056 29 281 6.4 16.1 0.00 0.00 0.00 30 1007.9
20260505183555 29 261 8.0 16.1 0.00 0.00 0.00 30 1008.0
20260505183056 29 259 8.0 19.3 0.00 0.00 0.00 29 1008.3
20260505182554 30 237 6.4 19.3 0.00 0.00 0.00 30 1008.1
20260505182054 30 216 3.2 11.3 0.00 0.00 0.00 34 1008.2
20260505181554 30 185 6.4 17.7 0.00 0.00 0.00 30 1008.2
20260505181054 30 314 6.4 17.7 0.00 0.00 0.00 31 1008.4
20260505180551 29 241 3.2 14.5 0.00 0.00 0.00 32 1008.4
20260505180050 29 271 6.4 16.1 0.00 0.00 0.00 31 1008.4
20260505175547 29 117 8.0 16.1 0.00 0.00 0.00 30 1008.4
20260505175326 29 219 3.2 16.1 0.00 0.00 0.00 33 1008.5
20260505174548 30 133 6.4 16.1 0.00 0.00 0.00 32 1008.5
20260505174047 30 227 4.8 14.5 0.00 0.00 0.00 32 1008.6
20260505173824 29 220 6.4 14.5 0.00 0.00 0.00 31 1008.6
20260505173044 30 341 4.8 14.5 0.00 0.00 0.00 32 1008.7
20260505172543 30 257 4.8 11.3 0.00 0.00 0.00 33 1008.7
20260505172045 30 272 3.2 9.7 0.00 0.00 0.00 36 1008.6
20260505171542 29 234 3.2 14.5 0.00 0.00 0.00 32 1008.7
20260505171317 29 212 3.2 14.5 0.00 0.00 0.00 34 1008.7
20260505170846 29 317 6.4 22.5 0.00 0.00 0.00 34 1008.8
20260505170557 29 135 4.8 22.5 0.00 0.00 0.00 33 1008.9
20260505165539 29 233 8.0 16.1 0.00 0.00 0.00 33 1008.9
20260505165037 29 199 3.2 14.5 0.00 0.00 0.00 37 1008.9
20260505164537 29 224 4.8 11.3 0.00 0.00 0.00 34 1009.0
20260505164037 29 195 4.8 9.7 0.00 0.00 0.00 37 1009.1
20260505163538 29 314 3.2 9.7 0.00 0.00 0.00 36 1009.2
20260505163037 29 265 4.8 9.7 0.00 0.00 0.00 36 1009.3
20260505162535 29 106 3.2 14.5 0.00 0.00 0.00 38 1009.3
20260505162037 28 272 4.8 14.5 0.00 0.00 0.00 37 1009.5
20260505161536 28 234 3.2 14.5 0.00 0.00 0.00 36 1009.7
20260505161035 29 176 3.2 8.0 0.00 0.00 0.00 36 1009.7
20260505160904 28 214 3.2 9.7 0.00 0.00 0.00 38 1009.9
20260505160613 29 278 1.6 8.0 0.00 0.00 0.00 39 1009.7
20260505153034 28 192 3.2 8.0 0.00 0.00 0.00 40 1009.9
20260505152534 28 168 3.2 8.0 0.00 0.00 0.00 40 1009.9
20260505152313 28 271 3.2 8.0 0.00 0.00 0.00 40 1009.9
20260505151535 27 59 1.6 11.3 0.00 0.00 0.00 45 1010.0
20260505151033 27 10 1.6 11.3 0.00 0.00 0.00 43 1009.9
20260505150534 28 237 3.2 6.4 0.00 0.00 0.00 39 1009.9
20260505140530 25 250 1.6 8.0 0.00 0.00 0.00 48 1010.1
20260505125018 21 209 1.6 8.0 0.00 0.00 0.00 52 1010.2
20260505124518 21 243 0.0 8.0 0.00 0.00 0.00 53 1010.3
20260505124020 21 354 1.6 9.7 0.00 0.00 0.00 53 1010.4
20260505123518 21 337 0.0 9.7 0.00 0.00 0.00 54 1010.3
20260505123020 20 288 1.6 8.0 0.00 0.00 0.00 55 1010.2
20260505122518 20 245 1.6 6.4 0.00 0.00 0.00 56 1010.4
20260505122013 20 321 3.2 6.4 0.00 0.00 0.00 54 1010.2
20260505121511 19 209 3.2 9.7 0.00 0.00 0.00 56 1010.2
20260505121009 19 243 1.6 9.7 0.00 0.00 0.00 56 1010.3
20260505120509 18 282 3.2 9.7 0.00 0.00 0.00 58 1010.3
20260505120009 18 155 3.2 9.7 0.00 0.00 0.00 57 1010.2
20260505115509 18 288 3.2 8.0 0.00 0.00 0.00 59 1010.2
20260505115006 18 193 3.2 8.0 0.00 0.00 0.00 58 1009.9
20260505114504 17 251 1.6 8.0 0.00 0.00 0.00 61 1010.0
20260505114029 17 226 1.6 4.8 0.00 0.00 0.00 61 1009.9
20260505114020 17 275 1.6 4.8 0.00 0.00 0.00 60 1009.9
20260505113004 16 224 1.6 6.4 0.00 0.00 0.00 64 1009.9
20260505112502 16 223 1.6 6.4 0.00 0.00 0.00 64 1009.8
20260505112003 16 200 3.2 6.4 0.00 0.00 0.00 64 1009.8
20260505111503 15 241 3.2 4.8 0.00 0.00 0.00 64 1009.8
20260505111003 15 262 3.2 6.4 0.00 0.00 0.00 64 1009.8
20260505110502 15 228 1.6 8.0 0.00 0.00 0.00 64 1009.6
20260505102004 15 235 1.6 4.8 0.00 0.00 0.00 67 1009.2
20260505101454 14 245 1.6 4.8 0.00 0.00 0.00 67 1009.2
20260505100955 14 245 3.2 4.8 0.00 0.00 0.00 67 1009.2
20260505100450 14 210 1.6 6.4 0.00 0.00 0.00 68 1009.2
20260505095951 14 210 0.0 6.4 0.00 0.00 0.00 68 1009.2
20260505095508 14 283 1.6 4.8 0.00 0.00 0.00 68 1009.1
20260505095500 14 237 1.6 4.8 0.00 0.00 0.00 69 1009.2
20260505094438 14 219 1.6 4.8 0.00 0.00 0.00 69 1009.1
20260505093934 14 219 1.6 4.8 0.00 0.00 0.00 69 1009.0
20260505093433 14 231 1.6 4.8 0.00 0.00 0.00 70 1009.0
20260505092934 14 231 1.6 4.8 0.00 0.00 0.00 69 1009.0
20260505092432 14 243 3.2 4.8 0.00 0.00 0.00 69 1009.1
20260505091932 14 217 1.6 4.8 0.00 0.00 0.00 69 1009.0
20260505091431 14 217 3.2 4.8 0.00 0.00 0.00 69 1008.9
20260505090932 14 213 3.2 4.8 0.00 0.00 0.00 70 1009.0
20260505090712 14 216 1.6 6.4 0.00 0.00 0.00 70 1008.9
20260505085931 14 221 1.6 6.4 0.00 0.00 0.00 70 1008.8
20260505085432 13 224 1.6 3.2 0.00 0.00 0.00 71 1008.8
20260505084931 13 223 0.0 3.2 0.00 0.00 0.00 71 1008.8
20260505084430 13 224 1.6 3.2 0.00 0.00 0.00 71 1008.9
20260505083930 13 224 0.0 6.4 0.00 0.00 0.00 71 1008.9
20260505083432 14 224 0.0 6.4 0.00 0.00 0.00 71 1009.0
20260505082930 14 243 0.0 3.2 0.00 0.00 0.00 71 1008.9
20260505082430 13 247 1.6 3.2 0.00 0.00 0.00 73 1009.0
20260505082204 13 247 1.6 3.2 0.00 0.00 0.00 73 1008.9
20260505081425 13 247 1.6 3.2 0.00 0.00 0.00 74 1008.8
20260505080924 13 247 1.6 3.2 0.00 0.00 0.00 74 1008.8
20260505080424 13 247 0.0 3.2 0.00 0.00 0.00 73 1008.8
20260505075925 13 247 0.0 3.2 0.00 0.00 0.00 73 1008.7
20260505075425 13 247 0.0 1.6 0.00 0.00 0.00 73 1008.7
20260505074924 13 247 0.0 1.6 0.00 0.00 0.00 73 1008.7
20260505074424 13 247 0.0 1.6 0.00 0.00 0.00 72 1008.8
20260505073925 14 247 0.0 1.6 0.00 0.00 0.00 73 1008.7
20260505073424 14 247 0.0 1.6 0.00 0.00 0.00 72 1008.7
20260505072924 14 247 0.0 1.6 0.00 0.00 0.00 73 1008.7
20260505072423 15 247 0.0 3.2 0.00 0.00 0.00 71 1008.6
20260505071923 15 247 0.0 3.2 0.00 0.00 0.00 69 1008.7
20260505071423 15 247 1.6 3.2 0.00 0.00 0.00 69 1008.5
20260505070923 15 247 1.6 3.2 0.00 0.00 0.00 68 1008.5
20260505070424 15 247 1.6 4.8 0.00 0.00 0.00 67 1008.5
20260505065923 16 247 1.6 4.8 0.00 0.00 0.00 67 1008.5
20260505065423 16 219 1.6 6.4 0.00 0.00 0.00 67 1008.6
20260505064925 15 203 3.2 6.4 0.00 0.00 0.00 68 1008.6
20260505064448 15 316 3.2 4.8 0.00 0.00 0.00 69 1008.4
20260505064439 15 254 3.2 4.8 0.00 0.00 0.00 68 1008.5
20260505063422 15 209 1.6 4.8 0.00 0.00 0.00 68 1008.4
20260505062925 15 210 1.6 4.8 0.00 0.00 0.00 68 1008.4
20260505062422 15 209 1.6 4.8 0.00 0.00 0.00 69 1008.4
20260505061922 15 259 1.6 3.2 0.00 0.00 0.00 70 1008.5
20260505061422 15 259 1.6 3.2 0.00 0.00 0.00 71 1008.4
20260505060923 15 290 0.0 3.2 0.00 0.00 0.00 71 1008.4
20260505060422 15 290 0.0 3.2 0.00 0.00 0.00 71 1008.5
20260505055922 15 219 0.0 1.6 0.00 0.00 0.00 71 1008.5
20260505055422 15 219 0.0 1.6 0.00 0.00 0.00 71 1008.4
20260505054921 15 219 0.0 3.2 0.00 0.00 0.00 72 1008.5
20260505054422 15 219 1.6 3.2 0.00 0.00 0.00 72 1008.4
20260505053923 15 220 0.0 0.0 0.00 0.00 0.00 71 1008.5
20260505053421 15 220 0.0 0.0 0.00 0.00 0.00 72 1008.5
20260505052922 15 220 0.0 0.0 0.00 0.00 0.00 72 1008.5
20260505052421 15 220 0.0 0.0 0.00 0.00 0.00 72 1008.5
20260505051922 15 220 0.0 0.0 0.00 0.00 0.00 71 1008.5
20260505051418 15 220 0.0 0.0 0.00 0.00 0.00 70 1008.5
20260505050920 15 220 0.0 0.0 0.00 0.00 0.00 70 1008.5
20260505050419 15 220 0.0 0.0 0.00 0.00 0.00 69 1008.5
20260505041418 16 220 0.0 4.8 0.00 0.00 0.00 64 1008.8
20260505040917 17 220 3.2 4.8 0.00 0.00 0.00 64 1008.8
20260505040417 16 221 0.0 3.2 0.00 0.00 0.00 64 1008.8
20260505035917 16 227 1.6 3.2 0.00 0.00 0.00 64 1008.9
20260505035417 16 227 1.6 3.2 0.00 0.00 0.00 64 1008.7
20260505034918 16 224 0.0 3.2 0.00 0.00 0.00 63 1008.6
20260505034416 16 223 0.0 4.8 0.00 0.00 0.00 63 1008.8
20260505033917 16 223 1.6 4.8 0.00 0.00 0.00 63 1008.7
20260505033417 16 224 0.0 3.2 0.00 0.00 0.00 63 1008.8
20260505033156 17 224 0.0 3.2 0.00 0.00 0.00 62 1008.7
20260505032655 17 224 0.0 3.2 0.00 0.00 0.00 62 1008.8
20260505031918 17 226 0.0 3.2 0.00 0.00 0.00 62 1008.8
20260505031417 17 221 0.0 3.2 0.00 0.00 0.00 61 1008.7
20260505030915 17 221 0.0 3.2 0.00 0.00 0.00 61 1008.7
20260505030416 17 221 0.0 1.6 0.00 0.00 0.00 61 1008.6
20260505025918 17 221 0.0 1.6 0.00 0.00 0.00 60 1008.7
20260505025657 17 221 0.0 1.6 0.00 0.00 0.00 60 1008.7
20260505024915 17 221 0.0 1.6 0.00 0.00 0.00 59 1008.6
20260505024415 17 221 0.0 1.6 0.00 0.00 0.00 58 1008.6
20260505023918 17 221 0.0 1.6 0.00 0.00 0.00 57 1008.5
20260505023416 18 221 0.0 3.2 0.00 0.00 0.00 56 1008.6
20260505022915 18 221 0.0 3.2 0.00 0.00 0.00 56 1008.6
20260505022416 18 223 0.0 1.6 0.00 0.00 0.00 55 1008.6
20260505021917 18 223 0.0 6.4 0.00 0.00 0.00 55 1008.5
20260505021657 18 223 0.0 6.4 0.00 0.00 0.00 54 1008.5
20260505020915 18 213 0.0 4.8 0.00 0.00 0.00 54 1008.6
20260505020414 18 212 0.0 4.8 0.00 0.00 0.00 54 1008.5
20260505020154 18 269 0.0 6.4 0.00 0.00 0.00 54 1008.5
20260505015416 18 216 1.6 6.4 0.00 0.00 0.00 56 1008.4
20260505014915 18 185 0.0 1.6 0.00 0.00 0.00 56 1008.3
20260505014415 18 185 0.0 1.6 0.00 0.00 0.00 55 1008.3
20260505013914 18 185 0.0 1.6 0.00 0.00 0.00 54 1008.4
20260505013414 18 185 0.0 1.6 0.00 0.00 0.00 54 1008.2
20260505012916 18 185 0.0 1.6 0.00 0.00 0.00 54 1008.3
20260505012414 19 185 0.0 1.6 0.00 0.00 0.00 54 1008.2
20260505012157 19 185 0.0 0.0 0.00 0.00 0.00 53 1008.0
20260505011415 19 185 0.0 1.6 0.00 0.00 0.00 52 1007.8
20260505010914 20 185 0.0 3.2 0.00 0.00 0.00 51 1008.0
20260505010413 20 185 1.6 3.2 0.00 0.00 0.00 50 1007.9
20260505005913 20 221 0.0 3.2 0.00 0.00 0.00 51 1007.8
20260505005653 20 221 0.0 3.2 0.00 0.00 0.00 50 1007.8
20260505005155 20 221 0.0 1.6 0.00 0.00 0.00 50 1007.8
20260505004412 20 221 0.0 1.6 0.00 0.00 0.00 50 1007.9
20260505003914 20 220 0.0 3.2 0.00 0.00 0.00 49 1007.8
20260505003414 20 221 0.0 4.8 0.00 0.00 0.00 49 1007.8
20260505003153 20 220 1.6 4.8 0.00 0.00 0.00 48 1007.7
20260505002412 20 219 0.0 1.6 0.00 0.00 0.00 49 1007.7
20260505001914 20 219 0.0 3.2 0.00 0.00 0.00 49 1007.7
20260505001413 21 219 0.0 4.8 0.00 0.00 0.00 48 1007.7
20260505000909 21 219 1.6 6.4 0.00 0.00 0.00 48 1007.6
20260505000409 21 228 0.0 6.4 0.00 0.00 0.00 46 1007.7
20260505000148 21 223 1.6 6.4 0.00 0.00 0.00 46 1007.6
20260504235408 21 206 1.6 3.2 0.00 0.00 0.00 46 1007.7
20260504234908 21 213 0.0 8.0 0.00 0.00 0.00 46 1007.6
20260504234408 22 212 3.2 8.0 0.00 0.00 0.00 45 1007.5
20260504233906 22 266 1.6 8.0 0.00 0.00 0.00 45 1007.6
20260504233403 22 258 3.2 8.0 0.00 0.00 0.00 44 1007.5
20260504232904 22 216 1.6 6.4 0.00 0.00 0.00 44 1007.5
20260504232403 22 274 1.6 4.8 0.00 0.00 0.00 43 1007.5
20260504231903 22 226 3.2 8.0 0.00 0.00 0.00 43 1007.5
20260504231403 22 220 1.6 8.0 0.00 0.00 0.00 42 1007.4
20260504230901 22 219 1.6 9.7 0.00 0.00 0.00 42 1007.5
20260504230405 22 117 3.2 11.3 0.00 0.00 0.00 41 1007.4
20260504225854 22 213 4.8 11.3 0.00 0.00 0.00 41 1007.4
20260504225354 22 58 3.2 8.0 0.00 0.00 0.00 41 1007.4
20260504224854 23 240 3.2 9.7 0.00 0.00 0.00 40 1007.4
20260504224353 23 240 3.2 17.7 0.00 0.00 0.00 40 1007.4
20260504223847 23 217 4.8 17.7 0.00 0.00 0.00 40 1007.3
20260504223628 23 221 3.2 16.1 0.00 0.00 0.00 40 1007.3
20260504223127 23 0 6.4 16.1 0.00 0.00 0.00 40 1007.4
20260504222347 23 179 3.2 6.4 0.00 0.00 0.00 39 1007.3
20260504221847 23 204 1.6 11.3 0.00 0.00 0.00 40 1007.4
20260504221346 23 217 3.2 11.3 0.00 0.00 0.00 38 1007.3
20260504220842 23 228 3.2 8.0 0.00 0.00 0.00 39 1007.3
20260504220343 23 18 4.8 9.7 0.00 0.00 0.00 38 1007.2
20260504215844 23 107 4.8 9.7 0.00 0.00 0.00 38 1007.2
20260504215341 24 247 1.6 8.0 0.00 0.00 0.00 39 1007.3
20260504214841 24 227 1.6 11.3 0.00 0.00 0.00 38 1007.3
20260504214341 24 254 4.8 17.7 0.00 0.00 0.00 38 1007.3
20260504213841 24 117 3.2 17.7 0.00 0.00 0.00 37 1007.2
20260504213340 23 216 1.6 9.7 0.00 0.00 0.00 38 1007.2
20260504212840 24 247 3.2 16.1 0.00 0.00 0.00 37 1007.2
20260504212339 24 206 4.8 16.1 0.00 0.00 0.00 36 1007.2
20260504211840 25 17 1.6 11.3 0.00 0.00 0.00 36 1007.2
20260504211340 25 281 3.2 11.3 0.00 0.00 0.00 36 1007.3
20260504210835 25 202 3.2 9.7 0.00 0.00 0.00 38 1007.2
20260504210335 24 171 3.2 9.7 0.00 0.00 0.00 37 1007.1
20260504205837 24 166 1.6 9.7 0.00 0.00 0.00 38 1007.2
20260504205333 25 278 3.2 9.7 0.00 0.00 0.00 36 1007.2
20260504205112 25 155 3.2 8.0 0.00 0.00 0.00 35 1007.2
20260504204322 25 197 1.6 9.7 0.00 0.00 0.00 36 1007.2
20260504203823 25 138 1.6 9.7 0.00 0.00 0.00 36 1007.2
20260504203323 25 212 3.2 9.7 0.00 0.00 0.00 35 1007.3
20260504202821 24 247 3.2 9.7 0.00 0.00 0.00 36 1007.5
20260504202322 25 203 3.2 9.7 0.00 0.00 0.00 35 1007.5
20260504201808 25 213 1.6 9.7 0.00 0.00 0.00 36 1007.6
20260504201308 25 220 1.6 6.4 0.00 0.00 0.00 35 1007.6
20260504200807 25 92 1.6 6.4 0.00 0.00 0.00 34 1007.6
20260504200307 25 238 1.6 11.3 0.00 0.00 0.00 35 1007.7
20260504195806 25 223 6.4 11.3 0.00 0.00 0.00 34 1007.8
20260504195306 25 245 4.8 11.3 0.00 0.00 0.00 32 1007.9
20260504194808 26 283 4.8 8.0 0.00 0.00 0.00 32 1008.0
20260504194306 25 166 1.6 11.3 0.00 0.00 0.00 33 1008.0
20260504193806 25 241 4.8 11.3 0.00 0.00 0.00 34 1008.1
20260504193307 25 327 1.6 9.7 0.00 0.00 0.00 32 1008.0
20260504192826 25 118 3.2 8.0 0.00 0.00 0.00 35 1008.2